#�ϑ�����,���ϕ���,���ϕ���,�ő啗��,�ő啗����������,�ő�u�ԕ���,�ő�u�ԕ�����������
#(�N����),(m/s)   ,(16����),(m/s)   ,(16����)        ,(m/s)       ,(16����)            
2012/4/26 0:01,2.9,3,2.9,4,5.4,3
2012/4/26 0:02,2.8,3,2.8,4,3.1,4
2012/4/26 0:03,2.7,3,2.8,4,4.8,3
2012/4/26 0:04,2.8,3,2.8,4,5.1,3
2012/4/26 0:05,3,3,3,3,4.7,3
2012/4/26 0:06,2.9,3,2.9,3,4.3,4
2012/4/26 0:07,3,3,3,3,4.2,3
2012/4/26 0:08,3.1,3,3.1,3,5.1,3
2012/4/26 0:09,3.1,3,3.1,3,5.7,2
2012/4/26 0:10,3.1,3,3.2,3,5.8,3
2012/4/26 0:11,3,3,3.1,3,4.3,3
2012/4/26 0:12,3,3,3,3,3.2,3
2012/4/26 0:13,3,2,3,3,4.1,2
2012/4/26 0:14,2.9,2,3,3,4.5,16
2012/4/26 0:15,2.9,2,2.9,3,4.7,3
2012/4/26 0:16,3.1,2,3.1,3,6.5,3
2012/4/26 0:17,3.2,2,3.2,3,6.3,3
2012/4/26 0:18,3.2,2,3.2,3,6.3,2
2012/4/26 0:19,3.4,3,3.4,2,6.5,3
2012/4/26 0:20,3.5,3,3.5,3,6.4,5
2012/4/26 0:21,3.6,3,3.6,3,5.2,4
2012/4/26 0:22,3.7,3,3.7,3,4.3,5
2012/4/26 0:23,3.7,3,3.7,3,5.1,4
2012/4/26 0:24,3.8,3,3.8,3,6.1,3
2012/4/26 0:25,3.8,3,3.8,3,3.9,3
2012/4/26 0:26,3.7,3,3.8,3,6.5,3
2012/4/26 0:27,3.6,3,3.7,3,5.5,5
2012/4/26 0:28,3.7,3,3.7,3,5.8,3
2012/4/26 0:29,3.6,3,3.7,3,5.4,2
2012/4/26 0:30,3.4,3,3.6,3,4.5,2
2012/4/26 0:31,3.5,3,3.5,3,7.1,3
2012/4/26 0:32,3.6,3,3.6,3,6.5,4
2012/4/26 0:33,3.7,3,3.7,3,6.2,5
2012/4/26 0:34,3.6,3,3.7,3,6.3,5
2012/4/26 0:35,3.6,4,3.7,3,5.1,4
2012/4/26 0:36,3.7,4,3.7,3,5.4,2
2012/4/26 0:37,3.7,3,3.7,3,4.4,4
2012/4/26 0:38,3.5,3,3.7,3,4.1,3
2012/4/26 0:39,3.4,3,3.5,3,4.2,3
2012/4/26 0:40,3.4,4,3.4,3,4.5,5
2012/4/26 0:41,3.4,4,3.4,3,6,3
2012/4/26 0:42,3.2,4,3.4,3,4.1,4
2012/4/26 0:43,3.2,3,3.2,3,4.9,2
2012/4/26 0:44,3.1,3,3.2,3,4.4,3
2012/4/26 0:45,3,3,3.1,4,3.3,2
2012/4/26 0:46,3,3,3,3,6.5,3
2012/4/26 0:47,3.1,3,3.1,3,6.1,4
2012/4/26 0:48,3,3,3,3,3.9,2
2012/4/26 0:49,2.9,3,3,3,3.6,3
2012/4/26 0:50,2.8,3,2.9,4,3.9,3
2012/4/26 0:51,2.7,3,2.8,4,3.5,3
2012/4/26 0:52,2.7,3,2.7,4,2.9,4
2012/4/26 0:53,2.7,3,2.7,3,5.5,3
2012/4/26 0:54,2.6,3,2.7,3,3.7,4
2012/4/26 0:55,2.7,3,2.7,3,4.9,4
2012/4/26 0:56,2.6,3,2.7,3,5.8,4
2012/4/26 0:57,2.5,3,2.6,3,6.2,4
2012/4/26 0:58,2.7,4,2.7,3,6,4
2012/4/26 0:59,2.9,4,2.9,3,5.6,5
2012/4/26 1:00,2.8,4,2.9,4,3.1,7
2012/4/26 1:01,2.8,5,2.8,4,3.2,7
2012/4/26 1:02,2.9,5,2.9,4,3.9,6
2012/4/26 1:03,2.8,5,2.9,4,4.5,8
2012/4/26 1:04,2.7,5,2.8,4,3.7,4
2012/4/26 1:05,2.7,5,2.7,4,3.5,4
2012/4/26 1:06,2.6,5,2.6,4,3.7,4
2012/4/26 1:07,2.5,5,2.6,4,3.7,4
2012/4/26 1:08,2.3,5,2.5,4,3.8,4
2012/4/26 1:09,2.3,5,2.3,4,3.6,6
2012/4/26 1:10,2.3,5,2.3,5,4.2,7
2012/4/26 1:11,2.7,5,2.7,5,8.7,7
2012/4/26 1:12,2.7,5,2.7,5,4.8,7
2012/4/26 1:13,2.8,5,2.8,5,5.6,6
2012/4/26 1:14,3,5,3,5,5,6
2012/4/26 1:15,3,6,3,5,5.4,7
2012/4/26 1:16,2.9,6,3,5,3.5,7
2012/4/26 1:17,2.9,6,2.9,5,3.8,8
2012/4/26 1:18,2.8,7,2.9,5,2.2,4
2012/4/26 1:19,2.7,6,2.8,5,3.6,4
2012/4/26 1:20,2.7,6,2.7,5,4.9,9
2012/4/26 1:21,2.2,6,2.6,5,1.8,6
2012/4/26 1:22,2.1,6,2.2,5,2.4,3
2012/4/26 1:23,1.9,6,2.1,5,3.3,5
2012/4/26 1:24,1.7,6,1.9,5,2.5,5
2012/4/26 1:25,1.6,6,1.7,6,2.2,4
2012/4/26 1:26,1.6,5,1.6,6,2.9,5
2012/4/26 1:27,1.6,5,1.6,6,2.9,6
2012/4/26 1:28,1.7,5,1.7,7,2.7,7
2012/4/26 1:29,1.6,5,1.7,6,2.2,4
2012/4/26 1:30,1.5,5,1.6,6,2.5,7
2012/4/26 1:31,1.6,5,1.6,6,2.7,7
2012/4/26 1:32,1.6,5,1.6,6,2.4,2
2012/4/26 1:33,1.5,5,1.6,6,1.3,8
2012/4/26 1:34,1.4,5,1.5,6,1.8,7
2012/4/26 1:35,1.5,5,1.5,5,3.3,8
2012/4/26 1:36,1.5,5,1.5,5,3.3,7
2012/4/26 1:37,1.4,5,1.5,5,3.6,4
2012/4/26 1:38,1.5,5,1.5,5,4.3,5
2012/4/26 1:39,1.8,5,1.8,5,6.9,4
2012/4/26 1:40,2,5,2,5,6.3,5
2012/4/26 1:41,2.3,4,2.3,4,6.9,3
2012/4/26 1:42,2.5,4,2.5,4,5.7,3
2012/4/26 1:43,2.9,4,2.9,4,6.3,3
2012/4/26 1:44,3.2,3,3.2,3,6.8,3
2012/4/26 1:45,3.5,3,3.5,3,7.7,2
2012/4/26 1:46,3.7,3,3.7,3,7.8,2
2012/4/26 1:47,4,3,4,3,6.7,2
2012/4/26 1:48,4.2,3,4.3,3,7.8,3
2012/4/26 1:49,4.3,3,4.3,3,7.1,3
2012/4/26 1:50,4.4,2,4.4,2,7,2
2012/4/26 1:51,4.2,2,4.4,2,6.1,3
2012/4/26 1:52,4.2,2,4.3,2,5.6,2
2012/4/26 1:53,4.2,2,4.2,2,7.6,3
2012/4/26 1:54,4.1,2,4.2,2,5,2
2012/4/26 1:55,4.1,2,4.1,2,6.2,3
2012/4/26 1:56,4,2,4.1,2,6.2,3
2012/4/26 1:57,4,2,4,2,7.1,2
2012/4/26 1:58,4,2,4.1,2,8.1,3
2012/4/26 1:59,3.8,2,4,2,5.5,3
2012/4/26 2:00,3.8,2,3.9,2,5.7,2
2012/4/26 2:01,3.8,2,3.8,2,5.1,3
2012/4/26 2:02,3.8,2,3.8,2,6.3,3
2012/4/26 2:03,3.5,2,3.7,2,5.5,3
2012/4/26 2:04,3.5,2,3.6,2,4.1,2
2012/4/26 2:05,3.5,2,3.5,2,7.6,2
2012/4/26 2:06,3.7,2,3.7,2,9.4,2
2012/4/26 2:07,3.8,2,3.8,2,7.6,2
2012/4/26 2:08,3.9,2,3.9,2,7.4,3
2012/4/26 2:09,4,2,4,2,7.2,2
2012/4/26 2:10,4,2,4,2,7.7,4
2012/4/26 2:11,4.3,2,4.3,2,11,1
2012/4/26 2:12,4.6,2,4.6,2,8.9,2
2012/4/26 2:13,4.7,2,4.7,2,6.4,2
2012/4/26 2:14,5,2,5,2,7.8,3
2012/4/26 2:15,4.9,2,5,2,6.4,2
2012/4/26 2:16,4.7,2,4.9,2,6.4,2
2012/4/26 2:17,4.6,2,4.7,2,7,2
2012/4/26 2:18,4.4,2,4.5,2,6.1,16
2012/4/26 2:19,4.3,2,4.3,2,8.2,1
2012/4/26 2:20,4.4,2,4.4,2,7.1,2
2012/4/26 2:21,4.3,2,4.4,2,7.5,2
2012/4/26 2:22,4.1,2,4.3,2,6.1,1
2012/4/26 2:23,4.2,2,4.2,2,7.5,1
2012/4/26 2:24,4.1,2,4.2,2,6.8,3
2012/4/26 2:25,4.2,2,4.2,2,6.7,3
2012/4/26 2:26,4.2,2,4.3,2,7.8,3
2012/4/26 2:27,4.2,2,4.3,2,9.3,2
2012/4/26 2:28,4.3,2,4.3,2,6.4,2
2012/4/26 2:29,4.4,2,4.4,2,7.4,2
2012/4/26 2:30,4.5,2,4.5,2,8.9,2
2012/4/26 2:31,4.5,2,4.6,2,10.1,3
2012/4/26 2:32,4.6,2,4.6,2,8.1,2
2012/4/26 2:33,4.7,2,4.7,2,8.4,3
2012/4/26 2:34,4.6,2,4.7,2,8.7,3
2012/4/26 2:35,4.6,2,4.7,2,7.9,3
2012/4/26 2:36,4.7,2,4.7,2,7.7,3
2012/4/26 2:37,4.7,2,4.7,2,7.4,3
2012/4/26 2:38,4.8,2,4.8,2,7.7,2
2012/4/26 2:39,4.7,2,4.8,2,5.7,3
2012/4/26 2:40,4.5,2,4.7,2,7.1,3
2012/4/26 2:41,4.3,2,4.5,2,6.8,2
2012/4/26 2:42,4.4,2,4.5,2,8.7,2
2012/4/26 2:43,4.4,2,4.4,2,7,3
2012/4/26 2:44,4.3,2,4.4,2,6.9,3
2012/4/26 2:45,4.5,2,4.5,2,8.4,3
2012/4/26 2:46,4.5,2,4.5,2,8.5,3
2012/4/26 2:47,4.5,2,4.5,2,7.5,3
2012/4/26 2:48,4.6,2,4.6,2,7.9,2
2012/4/26 2:49,4.6,2,4.6,2,8.1,3
2012/4/26 2:50,4.7,2,4.7,2,8.7,3
2012/4/26 2:51,4.9,2,4.9,2,7.2,4
2012/4/26 2:52,4.9,3,4.9,2,7.9,2
2012/4/26 2:53,5,3,5,3,7.4,2
2012/4/26 2:54,5.1,3,5.1,3,6.9,2
2012/4/26 2:55,5.1,3,5.2,3,9.7,3
2012/4/26 2:56,5.2,3,5.3,3,9.9,3
2012/4/26 2:57,5.2,3,5.3,3,7.5,3
2012/4/26 2:58,5.1,3,5.2,3,8.3,3
2012/4/26 2:59,5.3,3,5.3,3,8.1,2
2012/4/26 3:00,5.2,3,5.3,3,6.5,2
2012/4/26 3:01,5.3,3,5.3,3,9.8,3
2012/4/26 3:02,5.4,2,5.4,3,10.8,3
2012/4/26 3:03,5.5,3,5.6,3,9.7,3
2012/4/26 3:04,5.6,3,5.6,3,8.3,3
2012/4/26 3:05,5.5,3,5.6,3,7.6,3
2012/4/26 3:06,5.4,3,5.6,3,7.4,3
2012/4/26 3:07,5.4,3,5.4,3,8.4,3
2012/4/26 3:08,5.5,3,5.5,3,8.4,3
2012/4/26 3:09,5.4,3,5.5,3,6.3,3
2012/4/26 3:10,5.4,3,5.4,3,7.1,2
2012/4/26 3:11,5.1,3,5.4,3,5.7,2
2012/4/26 3:12,4.9,3,5.1,3,7.8,3
2012/4/26 3:13,4.6,3,4.8,3,5.7,3
2012/4/26 3:14,4.3,3,4.6,3,5.8,2
2012/4/26 3:15,4.2,3,4.3,3,9,4
2012/4/26 3:16,4.2,3,4.2,3,6.8,3
2012/4/26 3:17,4.2,3,4.3,3,6.8,3
2012/4/26 3:18,4,3,4.1,3,6.8,2
2012/4/26 3:19,4.1,3,4.1,3,7.4,3
2012/4/26 3:20,4.1,3,4.1,3,5.8,3
2012/4/26 3:21,4.2,3,4.2,3,7.1,2
2012/4/26 3:22,4.1,3,4.2,3,5.1,2
2012/4/26 3:23,4.2,3,4.2,3,7.1,3
2012/4/26 3:24,4.3,3,4.3,3,7.1,3
2012/4/26 3:25,4.3,3,4.3,3,6.9,3
2012/4/26 3:26,4.4,3,4.4,3,6.7,3
2012/4/26 3:27,4.4,3,4.4,3,7.2,3
2012/4/26 3:28,4.5,3,4.5,3,7.6,5
2012/4/26 3:29,4.3,3,4.5,3,5.7,3
2012/4/26 3:30,4.3,3,4.3,3,8.3,3
2012/4/26 3:31,4.2,3,4.3,3,7.8,4
2012/4/26 3:32,4.2,3,4.2,3,5,3
2012/4/26 3:33,4.1,3,4.2,3,8.1,3
2012/4/26 3:34,4,3,4.1,3,5.7,4
2012/4/26 3:35,4,3,4.1,3,6.7,3
2012/4/26 3:36,4,3,4.1,3,6.9,3
2012/4/26 3:37,3.9,3,4,3,5.5,4
2012/4/26 3:38,3.7,3,3.8,3,5.4,3
2012/4/26 3:39,3.7,3,3.7,3,5.6,4
2012/4/26 3:40,3.8,3,3.8,3,7.5,4
2012/4/26 3:41,3.8,4,3.8,3,8.6,3
2012/4/26 3:42,4,4,4,3,7.2,4
2012/4/26 3:43,4.1,4,4.1,3,8.1,3
2012/4/26 3:44,4.3,4,4.3,4,9.7,3
2012/4/26 3:45,4.4,4,4.4,4,7.7,3
2012/4/26 3:46,4.5,4,4.5,4,7.5,3
2012/4/26 3:47,4.6,4,4.6,4,8.5,4
2012/4/26 3:48,4.8,4,4.8,4,6.9,4
2012/4/26 3:49,4.9,3,4.9,3,5.1,4
2012/4/26 3:50,4.8,3,4.8,3,6.2,3
2012/4/26 3:51,4.7,3,4.8,3,6.3,4
2012/4/26 3:52,4.8,3,4.8,3,6.4,3
2012/4/26 3:53,4.7,3,4.8,3,6,4
2012/4/26 3:54,4.6,3,4.7,3,5.7,3
2012/4/26 3:55,4.3,3,4.5,3,4.8,3
2012/4/26 3:56,4.1,3,4.3,3,7.4,3
2012/4/26 3:57,3.9,3,4.1,3,6.3,3
2012/4/26 3:58,3.9,3,3.9,3,6.5,3
2012/4/26 3:59,4,3,4,3,5.8,3
2012/4/26 4:00,3.8,3,4,3,6.3,2
2012/4/26 4:01,3.9,3,3.9,3,5.7,3
2012/4/26 4:02,3.9,3,3.9,3,6.1,4
2012/4/26 4:03,3.8,3,3.9,3,5.1,4
2012/4/26 4:04,3.6,3,3.8,3,3,5
2012/4/26 4:05,3.6,3,3.6,3,5.7,3
2012/4/26 4:06,3.6,3,3.6,3,5.7,3
2012/4/26 4:07,3.5,3,3.6,3,5.5,5
2012/4/26 4:08,3.5,4,3.5,3,4.4,5
2012/4/26 4:09,3.4,4,3.5,3,5.2,3
2012/4/26 4:10,3.4,4,3.4,3,5.4,4
2012/4/26 4:11,3.3,4,3.4,3,5,3
2012/4/26 4:12,3.3,4,3.3,3,6.2,3
2012/4/26 4:13,3.3,4,3.3,3,5,3
2012/4/26 4:14,3.4,3,3.4,3,3.2,2
2012/4/26 4:15,3.6,3,3.6,3,7.8,4
2012/4/26 4:16,3.6,3,3.7,3,7.5,3
2012/4/26 4:17,3.9,3,3.9,3,8.5,3
2012/4/26 4:18,4.2,3,4.2,3,7.9,3
2012/4/26 4:19,4.3,3,4.3,3,9.3,3
2012/4/26 4:20,4.3,3,4.3,3,5.8,4
2012/4/26 4:21,4.5,3,4.5,3,6.8,5
2012/4/26 4:22,4.3,3,4.4,3,6,4
2012/4/26 4:23,4.3,3,4.4,3,6.2,2
2012/4/26 4:24,4.5,3,4.5,3,6.7,3
2012/4/26 4:25,4.4,4,4.5,3,6.1,5
2012/4/26 4:26,4.4,4,4.4,3,5.5,3
2012/4/26 4:27,4.2,4,4.4,3,5.2,3
2012/4/26 4:28,3.9,4,4.1,3,4.8,5
2012/4/26 4:29,3.6,4,3.9,3,4.8,4
2012/4/26 4:30,3.4,3,3.6,3,4.4,3
2012/4/26 4:31,3.4,3,3.4,3,5.4,3
2012/4/26 4:32,3.4,3,3.4,3,6.4,3
2012/4/26 4:33,3.4,3,3.5,3,5.4,4
2012/4/26 4:34,3.3,3,3.4,3,5.8,3
2012/4/26 4:35,3.4,3,3.4,4,7.9,4
2012/4/26 4:36,3.5,3,3.5,4,9.2,4
2012/4/26 4:37,3.5,3,3.5,4,6.3,5
2012/4/26 4:38,3.7,4,3.7,4,6.8,4
2012/4/26 4:39,3.8,3,3.8,3,7,3
2012/4/26 4:40,4,3,4,3,7.4,4
2012/4/26 4:41,4.2,3,4.2,3,7.4,3
2012/4/26 4:42,4.4,4,4.4,4,10.2,4
2012/4/26 4:43,4.8,4,4.8,4,10.2,3
2012/4/26 4:44,5,3,5,3,6.1,3
2012/4/26 4:45,5,4,5,3,7.4,4
2012/4/26 4:46,5,3,5,3,8.1,5
2012/4/26 4:47,5.2,3,5.2,4,10.1,5
2012/4/26 4:48,5.2,3,5.3,3,6,3
2012/4/26 4:49,5.2,4,5.2,3,5.5,3
2012/4/26 4:50,5.6,4,5.6,4,11.9,4
2012/4/26 4:51,5.6,4,5.6,4,9.4,4
2012/4/26 4:52,5.2,4,5.5,4,5.1,5
2012/4/26 4:53,5,4,5.2,4,7.5,5
2012/4/26 4:54,5,4,5,4,6.4,3
2012/4/26 4:55,5.2,4,5.2,4,10.3,3
2012/4/26 4:56,5.1,4,5.2,4,8.5,5
2012/4/26 4:57,5,4,5.1,4,8.4,5
2012/4/26 4:58,5.1,4,5.1,4,7.7,5
2012/4/26 4:59,5,4,5.1,4,6.1,5
2012/4/26 5:00,4.7,4,5,4,6.9,2
2012/4/26 5:01,4.7,4,4.7,4,9.3,5
2012/4/26 5:02,4.8,4,4.8,4,6,6
2012/4/26 5:03,4.7,4,4.8,4,5.5,4
2012/4/26 5:04,4.7,4,4.8,4,7,4
2012/4/26 5:05,4.4,4,4.8,4,5.6,6
2012/4/26 5:06,4.2,4,4.4,4,5.2,4
2012/4/26 5:07,4,4,4.2,4,4.7,4
2012/4/26 5:08,4,4,4,4,9.1,4
2012/4/26 5:09,4.3,4,4.3,4,11.3,5
2012/4/26 5:10,4.3,4,4.3,4,6.4,4
2012/4/26 5:11,4.1,4,4.3,4,4.7,5
2012/4/26 5:12,4.1,4,4.1,4,5.7,6
2012/4/26 5:13,4,4,4.1,4,4.8,5
2012/4/26 5:14,3.8,4,3.9,4,4.3,4
2012/4/26 5:15,3.8,4,3.8,4,6.4,3
2012/4/26 5:16,4,4,4,4,10.1,4
2012/4/26 5:17,4.2,4,4.2,4,6.3,5
2012/4/26 5:18,4.3,4,4.3,4,8.2,6
2012/4/26 5:19,4.1,4,4.3,4,8.6,7
2012/4/26 5:20,4.3,4,4.3,4,11,6
2012/4/26 5:21,4.3,4,4.4,4,5.6,4
2012/4/26 5:22,4.3,4,4.3,4,5.5,6
2012/4/26 5:23,4.3,4,4.4,4,5.5,5
2012/4/26 5:24,4.4,4,4.4,4,5.4,6
2012/4/26 5:25,4.5,4,4.5,4,5.8,6
2012/4/26 5:26,4.3,4,4.5,4,5.2,3
2012/4/26 5:27,4.1,4,4.3,4,4.4,4
2012/4/26 5:28,3.9,4,4.1,4,5.4,3
2012/4/26 5:29,3.7,4,3.9,4,5.2,4
2012/4/26 5:30,3.5,4,3.7,4,6.3,5
2012/4/26 5:31,3.6,4,3.6,4,6.4,6
2012/4/26 5:32,3.8,4,3.8,4,8.6,4
2012/4/26 5:33,3.9,4,3.9,4,6.9,4
2012/4/26 5:34,3.9,4,4,4,5.2,4
2012/4/26 5:35,3.9,4,3.9,4,5.6,3
2012/4/26 5:36,3.9,4,3.9,4,5.2,2
2012/4/26 5:37,4,4,4,4,6.5,5
2012/4/26 5:38,4.1,4,4.1,4,7.5,3
2012/4/26 5:39,4.1,4,4.2,4,6.1,6
2012/4/26 5:40,4.1,4,4.2,4,7.5,3
2012/4/26 5:41,3.9,4,4,4,5.6,3
2012/4/26 5:42,3.6,4,3.9,4,5,3
2012/4/26 5:43,3.5,4,3.7,4,6,5
2012/4/26 5:44,3.4,4,3.5,4,5.4,4
2012/4/26 5:45,3.3,4,3.4,4,3.6,3
2012/4/26 5:46,3.2,4,3.3,4,3.6,5
2012/4/26 5:47,3.1,4,3.2,4,4.9,3
2012/4/26 5:48,3,3,3.1,4,6.1,3
2012/4/26 5:49,3.1,3,3.1,4,7.5,3
2012/4/26 5:50,3.3,3,3.3,4,6.2,4
2012/4/26 5:51,3.3,3,3.3,4,5.6,4
2012/4/26 5:52,3.4,3,3.4,4,5.1,3
2012/4/26 5:53,3.4,3,3.4,4,5,3
2012/4/26 5:54,3.5,3,3.5,3,5.6,3
2012/4/26 5:55,3.6,3,3.6,3,6,5
2012/4/26 5:56,3.7,4,3.7,4,8.2,4
2012/4/26 5:57,4.1,4,4.1,4,8.7,4
2012/4/26 5:58,4.3,4,4.3,4,7.9,3
2012/4/26 5:59,4.3,4,4.3,4,7.6,2
2012/4/26 6:00,4.2,4,4.3,4,6.2,3
2012/4/26 6:01,4.2,4,4.2,4,6.3,3
2012/4/26 6:02,4.1,4,4.1,4,6,4
2012/4/26 6:03,4.1,4,4.1,4,5.2,5
2012/4/26 6:04,4,4,4.1,4,4.7,5
2012/4/26 6:05,3.9,4,4,4,5.4,4
2012/4/26 6:06,3.9,4,4,4,7.2,4
2012/4/26 6:07,3.8,4,3.9,4,6.8,5
2012/4/26 6:08,3.6,4,3.8,4,6.9,5
2012/4/26 6:09,3.5,4,3.6,4,6.1,4
2012/4/26 6:10,3.4,4,3.5,4,4.4,3
2012/4/26 6:11,3.3,4,3.4,4,5.5,4
2012/4/26 6:12,3.4,4,3.4,4,5.6,4
2012/4/26 6:13,3.5,4,3.5,4,5.7,3
2012/4/26 6:14,3.6,4,3.6,4,6.4,5
2012/4/26 6:15,3.6,4,3.6,4,4.9,3
2012/4/26 6:16,3.5,4,3.7,4,3.9,4
2012/4/26 6:17,3.5,4,3.5,4,7.1,5
2012/4/26 6:18,3.4,4,3.5,4,5.1,4
2012/4/26 6:19,3.5,3,3.5,4,6.3,3
2012/4/26 6:20,3.7,4,3.7,4,5,3
2012/4/26 6:21,3.7,4,3.7,4,4.9,3
2012/4/26 6:22,3.7,3,3.7,4,4.7,2
2012/4/26 6:23,3.7,3,3.8,3,7,3
2012/4/26 6:24,3.8,3,3.8,3,6.2,3
2012/4/26 6:25,3.8,3,3.8,3,5.7,3
2012/4/26 6:26,3.9,3,3.9,3,5.7,5
2012/4/26 6:27,3.9,3,4,3,6.9,4
2012/4/26 6:28,3.9,3,3.9,3,5.6,3
2012/4/26 6:29,3.8,3,3.9,3,6.3,5
2012/4/26 6:30,3.7,3,3.8,3,6.2,5
2012/4/26 6:31,3.8,3,3.8,3,7,3
2012/4/26 6:32,3.8,3,3.9,3,4.8,3
2012/4/26 6:33,3.8,3,3.8,3,7,3
2012/4/26 6:34,3.7,3,3.9,3,6.1,4
2012/4/26 6:35,3.7,3,3.7,3,7.1,3
2012/4/26 6:36,3.9,3,3.9,3,7,3
2012/4/26 6:37,3.9,3,3.9,3,6.3,5
2012/4/26 6:38,4,3,4,3,7.7,6
2012/4/26 6:39,4,4,4.1,4,6.2,6
2012/4/26 6:40,4,4,4,4,3.9,4
2012/4/26 6:41,4,4,4,4,6.4,5
2012/4/26 6:42,4.1,4,4.1,4,6.8,4
2012/4/26 6:43,3.9,4,4.1,4,6.4,5
2012/4/26 6:44,4,4,4,4,4.4,4
2012/4/26 6:45,3.8,4,4,4,3.9,3
2012/4/26 6:46,3.5,4,3.7,4,7.5,4
2012/4/26 6:47,3.5,4,3.6,4,6.9,4
2012/4/26 6:48,3.3,4,3.5,4,4.8,4
2012/4/26 6:49,3.2,4,3.3,4,3.9,4
2012/4/26 6:50,3,4,3.2,4,2.9,3
2012/4/26 6:51,2.9,4,3,4,6.5,3
2012/4/26 6:52,2.8,4,2.9,4,4.5,4
2012/4/26 6:53,2.7,4,2.8,4,3.6,3
2012/4/26 6:54,2.6,4,2.7,4,4.3,3
2012/4/26 6:55,2.5,4,2.6,4,3.6,4
2012/4/26 6:56,2.6,4,2.7,4,5.7,4
2012/4/26 6:57,2.5,4,2.6,4,4.2,5
2012/4/26 6:58,2.4,4,2.5,4,2.9,5
2012/4/26 6:59,2.4,4,2.4,4,3.2,6
2012/4/26 7:00,2.5,4,2.5,4,3.1,5
2012/4/26 7:01,2.4,4,2.5,4,2.7,6
2012/4/26 7:02,2.4,4,2.4,4,6,4
2012/4/26 7:03,2.3,4,2.4,4,4.4,5
2012/4/26 7:04,2.4,4,2.4,4,4.4,4
2012/4/26 7:05,2.3,4,2.4,4,3.9,3
2012/4/26 7:06,2.3,4,2.3,4,4.3,6
2012/4/26 7:07,2.3,4,2.3,4,3.8,5
2012/4/26 7:08,2.3,4,2.3,4,3.6,3
2012/4/26 7:09,2.3,4,2.3,4,3.9,3
2012/4/26 7:10,2.3,4,2.3,4,3,3
2012/4/26 7:11,2.4,4,2.4,4,4.3,3
2012/4/26 7:12,2.4,4,2.4,4,5,3
2012/4/26 7:13,2.5,4,2.6,4,6.2,4
2012/4/26 7:14,2.5,4,2.5,4,3.5,6
2012/4/26 7:15,2.6,4,2.6,4,4.2,5
2012/4/26 7:16,2.6,4,2.6,4,4.8,4
2012/4/26 7:17,2.7,4,2.7,4,4.8,6
2012/4/26 7:18,2.7,4,2.7,4,3,3
2012/4/26 7:19,2.6,4,2.7,4,2.5,3
2012/4/26 7:20,2.6,5,2.6,4,2.9,6
2012/4/26 7:21,2.4,5,2.6,4,3,6
2012/4/26 7:22,2.3,5,2.4,4,3,3
2012/4/26 7:23,2.1,4,2.2,4,5,3
2012/4/26 7:24,2,4,2.1,4,4.8,6
2012/4/26 7:25,2.1,4,2.1,4,4.5,6
2012/4/26 7:26,2,4,2.1,4,4.2,4
2012/4/26 7:27,1.9,4,2,4,3.8,3
2012/4/26 7:28,2.1,4,2.1,4,5.2,4
2012/4/26 7:29,2.4,4,2.4,5,5.4,2
2012/4/26 7:30,2.5,4,2.5,5,4.7,3
2012/4/26 7:31,2.6,4,2.6,4,4.7,6
2012/4/26 7:32,2.8,4,2.8,4,6.1,5
2012/4/26 7:33,2.8,4,2.9,4,4.7,5
2012/4/26 7:34,3,4,3,4,3.9,4
2012/4/26 7:35,3,4,3,4,4.7,3
2012/4/26 7:36,3,4,3,4,5.4,6
2012/4/26 7:37,3.2,4,3.2,4,6.4,6
2012/4/26 7:38,3.2,5,3.2,4,6.5,6
2012/4/26 7:39,3,5,3.2,4,4.2,5
2012/4/26 7:40,3,5,3,4,3.1,3
2012/4/26 7:41,3,5,3,4,6.5,4
2012/4/26 7:42,3,4,3.1,4,5.4,3
2012/4/26 7:43,3.1,4,3.1,4,6.2,3
2012/4/26 7:44,3.3,4,3.3,4,5.5,3
2012/4/26 7:45,3.4,4,3.4,4,4.9,3
2012/4/26 7:46,3.4,4,3.4,4,5.2,5
2012/4/26 7:47,3.2,4,3.4,4,4.3,3
2012/4/26 7:48,3.2,4,3.2,4,4.7,5
2012/4/26 7:49,3.2,4,3.2,4,4.2,5
2012/4/26 7:50,3.1,4,3.2,4,2.6,1
2012/4/26 7:51,3.1,3,3.1,4,4.7,3
2012/4/26 7:52,3.1,4,3.1,4,4.3,4
2012/4/26 7:53,3,4,3.1,4,4.2,3
2012/4/26 7:54,2.8,4,3,4,3.5,3
2012/4/26 7:55,2.6,4,2.7,4,3,3
2012/4/26 7:56,2.6,3,2.6,4,3.5,3
2012/4/26 7:57,2.7,3,2.7,4,4.2,3
2012/4/26 7:58,2.5,3,2.7,4,5.7,5
2012/4/26 7:59,2.6,3,2.6,4,5.5,6
2012/4/26 8:00,2.7,3,2.7,4,3,3
2012/4/26 8:01,2.6,3,2.7,4,3.3,3
2012/4/26 8:02,2.4,3,2.6,4,2.1,2
2012/4/26 8:03,2.5,3,2.5,4,4.3,3
2012/4/26 8:04,2.5,3,2.5,4,4.5,3
2012/4/26 8:05,2.6,4,2.6,3,4.7,6
2012/4/26 8:06,2.7,4,2.7,3,6.4,3
2012/4/26 8:07,2.8,4,2.8,4,6.2,4
2012/4/26 8:08,2.8,4,2.9,4,4.3,3
2012/4/26 8:09,2.7,3,2.8,4,3.3,3
2012/4/26 8:10,2.7,3,2.7,4,4.7,3
2012/4/26 8:11,2.8,3,2.8,4,4.7,3
2012/4/26 8:12,2.8,3,2.8,4,2.7,4
2012/4/26 8:13,2.7,3,2.8,4,3.7,3
2012/4/26 8:14,2.7,3,2.7,4,3.5,3
2012/4/26 8:15,2.6,3,2.7,4,5.1,2
2012/4/26 8:16,2.5,3,2.6,4,5.2,3
2012/4/26 8:17,2.4,3,2.5,4,4.8,3
2012/4/26 8:18,2.5,3,2.5,4,5.1,4
2012/4/26 8:19,2.5,3,2.5,3,3.8,4
2012/4/26 8:20,2.5,3,2.6,3,3.9,5
2012/4/26 8:21,2.4,3,2.5,3,4.8,4
2012/4/26 8:22,2.5,3,2.5,3,3.9,3
2012/4/26 8:23,2.7,3,2.7,3,5.2,3
2012/4/26 8:24,2.8,3,2.8,3,4.7,4
2012/4/26 8:25,3,4,3,3,5.2,3
2012/4/26 8:26,3,4,3.1,4,4.9,5
2012/4/26 8:27,3.1,4,3.1,4,5.5,2
2012/4/26 8:28,3.1,3,3.1,4,4.4,2
2012/4/26 8:29,3.1,3,3.1,4,4.4,3
2012/4/26 8:30,3.1,3,3.1,4,3.1,3
2012/4/26 8:31,3.1,3,3.1,4,4.4,3
2012/4/26 8:32,3.1,3,3.1,4,5.1,4
2012/4/26 8:33,3,3,3.1,4,3.8,4
2012/4/26 8:34,2.9,3,3,4,5.8,3
2012/4/26 8:35,2.8,3,2.9,4,5.1,3
2012/4/26 8:36,2.8,3,2.8,4,6.4,4
2012/4/26 8:37,2.8,3,2.9,4,6.8,5
2012/4/26 8:38,2.8,3,2.9,3,5.6,4
2012/4/26 8:39,2.8,4,2.8,3,3.3,3
2012/4/26 8:40,2.8,4,2.8,3,4.1,2
2012/4/26 8:41,2.9,4,2.9,3,6.3,4
2012/4/26 8:42,2.9,4,3,3,4.9,4
2012/4/26 8:43,2.9,4,2.9,3,3.5,5
2012/4/26 8:44,2.8,4,2.9,4,2.4,6
2012/4/26 8:45,2.6,4,2.7,4,1.9,1
2012/4/26 8:46,2.5,4,2.6,4,3.9,4
2012/4/26 8:47,2.3,4,2.4,4,4.4,3
2012/4/26 8:48,2.2,4,2.3,4,4.1,2
2012/4/26 8:49,2.2,4,2.2,4,4.3,4
2012/4/26 8:50,2.3,4,2.3,4,2.7,4
2012/4/26 8:51,2.1,4,2.3,4,3.1,3
2012/4/26 8:52,2.1,4,2.1,4,3.9,3
2012/4/26 8:53,2,4,2.1,4,3.3,4
2012/4/26 8:54,2.1,3,2.1,4,3.7,3
2012/4/26 8:55,2.3,3,2.3,4,5.8,4
2012/4/26 8:56,2.5,3,2.5,3,6.7,3
2012/4/26 8:57,2.5,3,2.5,3,3.7,3
2012/4/26 8:58,2.6,3,2.6,3,3.3,2
2012/4/26 8:59,2.5,3,2.6,3,3.1,3
2012/4/26 9:00,2.5,3,2.5,3,3.6,3
2012/4/26 9:01,2.5,3,2.5,3,5.1,3
2012/4/26 9:02,2.6,3,2.7,3,5.1,3
2012/4/26 9:03,2.9,3,2.9,3,5.7,3
2012/4/26 9:04,3.1,3,3.1,3,6.2,3
2012/4/26 9:05,3.1,3,3.1,3,4.9,3
2012/4/26 9:06,3,3,3.2,3,5,3
2012/4/26 9:07,3.2,3,3.2,3,5.1,3
2012/4/26 9:08,3.3,3,3.3,3,4.8,3
2012/4/26 9:09,3.3,3,3.3,3,3.5,4
2012/4/26 9:10,3.5,3,3.5,3,5.2,3
2012/4/26 9:11,3.4,3,3.5,3,3.8,2
2012/4/26 9:12,3.5,3,3.5,3,6.8,2
2012/4/26 9:13,3.5,3,3.5,3,8.3,3
2012/4/26 9:14,3.6,3,3.6,3,8.3,3
2012/4/26 9:15,3.4,3,3.6,3,4.2,3
2012/4/26 9:16,3.4,3,3.4,3,4.1,3
2012/4/26 9:17,3.2,3,3.3,3,3.6,3
2012/4/26 9:18,3,3,3.2,3,3.3,2
2012/4/26 9:19,3,2,3.1,3,3.3,3
2012/4/26 9:20,2.9,2,3,3,4.1,3
2012/4/26 9:21,3,2,3,3,4.1,3
2012/4/26 9:22,3,2,3,3,4.8,3
2012/4/26 9:23,2.9,2,2.9,3,4.4,4
2012/4/26 9:24,2.6,2,2.9,3,3.9,3
2012/4/26 9:25,2.7,2,2.7,3,4.5,3
2012/4/26 9:26,2.7,3,2.7,3,4.2,2
2012/4/26 9:27,2.8,3,2.8,3,4.7,2
2012/4/26 9:28,2.9,3,2.9,2,6.9,3
2012/4/26 9:29,3.1,3,3.1,3,5.6,4
2012/4/26 9:30,3,3,3.1,3,3.9,16
2012/4/26 9:31,3,3,3,3,5.1,6
2012/4/26 9:32,3,3,3,3,5.4,6
2012/4/26 9:33,2.9,3,3,3,6.1,3
2012/4/26 9:34,3,3,3,3,6.1,3
2012/4/26 9:35,2.8,3,3,3,2.6,2
2012/4/26 9:36,2.8,3,2.8,3,3.3,4
2012/4/26 9:37,2.7,3,2.8,3,3.6,4
2012/4/26 9:38,2.6,3,2.8,3,3.7,5
2012/4/26 9:39,2.5,3,2.6,3,3.1,3
2012/4/26 9:40,2.6,3,2.6,3,4.3,3
2012/4/26 9:41,2.6,3,2.7,3,5.2,3
2012/4/26 9:42,2.7,3,2.7,3,5,3
2012/4/26 9:43,2.7,3,2.7,3,4.2,3
2012/4/26 9:44,2.6,3,2.7,3,6.4,2
2012/4/26 9:45,2.8,3,2.8,3,4.4,3
2012/4/26 9:46,2.9,3,2.9,3,4.5,2
2012/4/26 9:47,2.8,3,2.9,3,4.5,16
2012/4/26 9:48,2.8,3,2.8,3,4.4,1
2012/4/26 9:49,2.8,3,2.8,3,4.1,2
2012/4/26 9:50,2.7,3,2.8,3,2.2,3
2012/4/26 9:51,2.5,3,2.6,3,3.8,2
2012/4/26 9:52,2.4,3,2.4,3,4.1,3
2012/4/26 9:53,2.5,3,2.5,3,4.9,3
2012/4/26 9:54,2.7,3,2.7,3,6.1,4
2012/4/26 9:55,2.6,3,2.7,3,4.1,4
2012/4/26 9:56,2.5,3,2.6,3,3.6,5
2012/4/26 9:57,2.5,3,2.5,3,3.8,3
2012/4/26 9:58,2.4,3,2.5,3,2.1,3
2012/4/26 9:59,2.3,3,2.4,3,2.7,4
2012/4/26 10:00,2.4,3,2.4,3,2.9,2
2012/4/26 10:01,2.4,3,2.4,3,2.5,3
2012/4/26 10:02,2.3,3,2.4,3,3.1,2
2012/4/26 10:03,2.1,3,2.3,3,3.1,2
2012/4/26 10:04,1.9,3,2,3,3.1,2
2012/4/26 10:05,1.8,3,1.8,3,3.5,4
2012/4/26 10:06,1.7,3,1.8,3,2.2,2
2012/4/26 10:07,1.6,3,1.7,3,2.7,3
2012/4/26 10:08,1.8,3,1.8,3,4.1,3
2012/4/26 10:09,1.9,3,1.9,3,4.8,3
2012/4/26 10:10,1.9,2,1.9,3,2.9,2
2012/4/26 10:11,2.2,3,2.2,3,7.4,3
2012/4/26 10:12,2.4,3,2.4,3,6,3
2012/4/26 10:13,2.4,3,2.4,3,3.7,1
2012/4/26 10:14,2.4,3,2.4,3,3.2,2
2012/4/26 10:15,2.3,3,2.4,3,2.2,4
2012/4/26 10:16,2.3,3,2.3,3,2.6,3
2012/4/26 10:17,2.3,3,2.3,3,2.9,16
2012/4/26 10:18,2.2,3,2.3,3,4.2,3
2012/4/26 10:19,2.1,3,2.2,3,3.1,1
2012/4/26 10:20,2.3,3,2.3,3,5.6,4
2012/4/26 10:21,2,3,2.3,3,4.7,3
2012/4/26 10:22,1.9,3,2,3,3,4
2012/4/26 10:23,2,3,2,3,4.9,3
2012/4/26 10:24,2.1,3,2.1,3,3.7,2
2012/4/26 10:25,2.3,4,2.3,3,4.7,4
2012/4/26 10:26,2.3,3,2.3,3,2.7,5
2012/4/26 10:27,2.3,4,2.3,3,3.1,4
2012/4/26 10:28,2.2,3,2.3,3,4.1,3
2012/4/26 10:29,2.3,3,2.3,3,3.3,2
2012/4/26 10:30,2.2,3,2.3,3,4.9,4
2012/4/26 10:31,2.3,3,2.3,4,5.1,3
2012/4/26 10:32,2.4,3,2.4,3,4.5,3
2012/4/26 10:33,2.2,3,2.4,3,2.7,2
2012/4/26 10:34,2.2,3,2.2,3,3.2,2
2012/4/26 10:35,2.1,3,2.2,3,2.9,3
2012/4/26 10:36,2.2,3,2.2,3,4.4,2
2012/4/26 10:37,2.3,3,2.3,3,3.5,4
2012/4/26 10:38,2.3,3,2.3,3,3.1,3
2012/4/26 10:39,2.4,3,2.4,3,3.2,3
2012/4/26 10:40,2.3,3,2.4,3,2.6,3
2012/4/26 10:41,2.2,2,2.3,3,4.7,4
2012/4/26 10:42,2.3,2,2.3,3,4.5,3
2012/4/26 10:43,2.5,3,2.5,3,3.7,5
2012/4/26 10:44,2.5,3,2.5,3,4.7,4
2012/4/26 10:45,2.6,3,2.6,3,4.2,2
2012/4/26 10:46,2.5,3,2.6,3,3.8,2
2012/4/26 10:47,2.6,3,2.6,3,4.8,3
2012/4/26 10:48,2.7,3,2.7,3,4.4,3
2012/4/26 10:49,2.8,3,2.8,3,4.9,3
2012/4/26 10:50,2.9,3,2.9,3,4.9,3
2012/4/26 10:51,2.9,3,2.9,3,4.2,2
2012/4/26 10:52,2.9,3,3,3,4.3,3
2012/4/26 10:53,2.9,3,3,3,4.4,3
2012/4/26 10:54,3,3,3,3,4.7,1
2012/4/26 10:55,3,3,3,3,5.2,4
2012/4/26 10:56,3,3,3,3,4.2,4
2012/4/26 10:57,2.9,3,3,3,3.9,1
2012/4/26 10:58,2.9,2,2.9,3,3.8,3
2012/4/26 10:59,3,2,3,3,5,3
2012/4/26 11:00,2.9,2,3,3,3.9,4
2012/4/26 11:01,3.1,2,3.1,2,7.9,3
2012/4/26 11:02,3.2,2,3.2,2,5.6,2
2012/4/26 11:03,3.3,2,3.3,2,6.5,3
2012/4/26 11:04,3.2,2,3.2,2,5,3
2012/4/26 11:05,3.3,2,3.3,2,7.2,2
2012/4/26 11:06,3.4,2,3.4,2,5.7,3
2012/4/26 11:07,3.3,2,3.4,2,3.7,3
2012/4/26 11:08,3.2,2,3.3,2,3,14
2012/4/26 11:09,3.1,2,3.2,2,4.2,3
2012/4/26 11:10,3.1,2,3.1,2,4.4,2
2012/4/26 11:11,2.8,2,3.1,2,3.7,2
2012/4/26 11:12,2.7,2,2.8,2,3.5,3
2012/4/26 11:13,2.5,2,2.7,2,2.7,3
2012/4/26 11:14,2.5,3,2.5,2,5.5,3
2012/4/26 11:15,2.4,3,2.6,2,3.8,3
2012/4/26 11:16,2.2,3,2.4,2,2.9,3
2012/4/26 11:17,2.2,3,2.3,2,3.8,3
2012/4/26 11:18,2.3,3,2.3,2,4.7,3
2012/4/26 11:19,2.3,3,2.4,2,3.6,3
2012/4/26 11:20,2.3,3,2.3,2,5.4,3
2012/4/26 11:21,2.4,3,2.4,2,4.9,3
2012/4/26 11:22,2.5,3,2.5,2,4.5,3
2012/4/26 11:23,2.5,3,2.5,3,3,3
2012/4/26 11:24,2.4,3,2.5,3,3.9,2
2012/4/26 11:25,2.4,2,2.4,3,3.6,2
2012/4/26 11:26,2.4,2,2.4,3,2.1,3
2012/4/26 11:27,2.4,2,2.4,3,4.4,3
2012/4/26 11:28,2.3,2,2.4,3,4.2,2
2012/4/26 11:29,2.4,3,2.4,3,4.3,3
2012/4/26 11:30,2.4,2,2.5,3,3.9,2
2012/4/26 11:31,2.1,2,2.3,3,3.1,3
2012/4/26 11:32,2,2,2.1,3,4.8,2
2012/4/26 11:33,2,2,2,3,3.9,3
2012/4/26 11:34,2.1,2,2.1,3,3.9,3
2012/4/26 11:35,2,2,2.1,3,2,1
2012/4/26 11:36,2,2,2,3,3.7,1
2012/4/26 11:37,2.1,2,2.1,3,3.8,4
2012/4/26 11:38,2.1,2,2.1,3,3,3
2012/4/26 11:39,2,2,2.1,3,3.2,2
2012/4/26 11:40,2,2,2,2,4.2,3
2012/4/26 11:41,2.1,2,2.1,2,3,3
2012/4/26 11:42,2.2,2,2.2,2,3.7,3
2012/4/26 11:43,2.2,3,2.2,2,3.5,3
2012/4/26 11:44,2.1,3,2.1,2,3.1,4
2012/4/26 11:45,2.1,3,2.2,2,2.2,3
2012/4/26 11:46,2.1,3,2.1,2,1.4,3
2012/4/26 11:47,1.9,3,2.1,2,1.6,3
2012/4/26 11:48,1.8,3,1.8,2,2.2,2
2012/4/26 11:49,1.7,3,1.8,2,3.6,3